Weather History for Gilze-Rijen, Netherlands

Change the Weather History Date:

Friday, January 4, 2013

  Actual Average Record
Temperature  
Mean Temperature 48 °F -  
Max Temperature 50 °F 41 °F 55 °F (1999)
Min Temperature 46 °F 31 °F 21 °F (1997)
Degree Days  
Heating Degree Days 17    
Moisture  
Dew Point 49 °F    
Average Humidity 100    
Maximum Humidity 100    
Minimum Humidity 94    
Precipitation  
Precipitation 0.00 in - - ()
Sea Level Pressure  
Sea Level Pressure 30.57 in    
Wind  
Wind Speed 7 mph ()    
Max Wind Speed 13 mph    
Max Gust Speed -    
Visibility 1.9 miles    
Events Rain    
Averages and records for this station are not official NWS values.
T = Trace of Precipitation, MM = Missing Value Source: Averaged Metar Reports

Daily Weather History Graph

Daily Weather History Graph

Search for Another Location

Airport:

Trip Planner

Search our weather history database for the weather conditions in past years. The results will help you decide how hot, cold, wet, or windy it might be!

Date:

Astronomy

Jan. 04, 2013 Rise Set
Actual Time 8:45 AM CET 4:45 PM CET
Civil Twilight 8:05 AM CET 5:25 PM CET
Nautical Twilight 7:23 AM CET 6:07 PM CET
Astronomical Twilight 6:42 AM CET 6:48 PM CET
Moon No Moon Rise 11:26 AM CET (1/4)
Length of Visible Light 9h 19m
Length of Day
7h 59m
Waning Gibbous, 58% of the Moon is Illuminated
Jan 4
Waning Gibbous
Jan 5
Last Quarter
Jan 11
New
Jan 19
First Quarter
Jan 27
Full

Hourly Weather History & Observations

Time (CET) Temp. Windchill Dew Point Humidity Pressure Visibility Wind Dir Wind Speed Gust Speed Precip Events Conditions
12:14 AM 50.0 °F - 50.0 °F 100% 30.57 in - West 5.8 mph - N/A   Overcast
12:25 AM 50.0 °F - 50.0 °F 100% 30.57 in - West 5.8 mph - N/A   Overcast
12:55 AM 50.0 °F - 50.0 °F 100% 30.57 in - West 8.1 mph - N/A   Overcast
1:25 AM 50.0 °F - 50.0 °F 100% 30.57 in - West 6.9 mph - N/A   Overcast
1:55 AM 50.0 °F - 50.0 °F 100% 30.57 in - WSW 8.1 mph - N/A   Overcast
2:25 AM 50.0 °F - 50.0 °F 100% 30.57 in - West 6.9 mph - N/A   Overcast
2:55 AM 50.0 °F - 50.0 °F 100% 30.57 in 1.6 mi West 6.9 mph - N/A   Overcast
3:25 AM 50.0 °F - 50.0 °F 100% 30.57 in 1.6 mi West 8.1 mph - N/A   Overcast
3:55 AM 50.0 °F - 50.0 °F 100% 30.57 in 1.7 mi West 8.1 mph - N/A   Drizzle
4:25 AM 50.0 °F - 50.0 °F 100% 30.54 in 1.9 mi WSW 10.4 mph - N/A   Overcast
4:55 AM 50.0 °F - 50.0 °F 100% 30.57 in - West 8.1 mph - N/A   Overcast
5:25 AM 50.0 °F - 50.0 °F 100% 30.57 in - West 10.4 mph - N/A   Overcast
5:55 AM 50.0 °F - 48.2 °F 94% 30.57 in 1.9 mi West 9.2 mph - N/A   Overcast
6:25 AM 48.2 °F - 48.2 °F 100% 30.57 in 1.8 mi West 9.2 mph - N/A   Overcast
6:51 AM 48.2 °F - 48.2 °F 100% 30.57 in 1.5 mi West 8.1 mph - N/A   Overcast
6:55 AM 48.2 °F - 48.2 °F 100% 30.57 in 1.4 mi West 9.2 mph - N/A   Overcast
7:25 AM 48.2 °F - 48.2 °F 100% 30.57 in 1.3 mi West 8.1 mph - N/A   Overcast
7:31 AM 48.2 °F - 48.2 °F 100% 30.57 in 1.4 mi West 9.2 mph - N/A   Overcast
7:33 AM 48.2 °F - 48.2 °F 100% 30.57 in 1.4 mi West 9.2 mph - N/A   Overcast
7:55 AM 48.2 °F - 48.2 °F 100% 30.57 in 1.4 mi West 9.2 mph - N/A   Overcast
8:10 AM 48.2 °F - 48.2 °F 100% 30.57 in 1.4 mi West 8.1 mph - N/A   Overcast
8:16 AM 48.2 °F - 48.2 °F 100% 30.57 in 1.4 mi West 8.1 mph - N/A   Overcast
8:25 AM 48.2 °F - 48.2 °F 100% 30.57 in 1.5 mi WSW 8.1 mph - N/A   Overcast
8:55 AM 48.2 °F - 48.2 °F 100% 30.57 in 1.4 mi West 8.1 mph - N/A   Overcast
9:15 AM 48.2 °F - 48.2 °F 100% 30.57 in 1.2 mi West 8.1 mph - N/A   Overcast
9:19 AM 48.2 °F - 48.2 °F 100% 30.57 in 1.2 mi West 6.9 mph - N/A   Overcast
9:25 AM 50.0 °F - 50.0 °F 100% 30.57 in 1.2 mi West 9.2 mph - N/A   Overcast
9:55 AM 50.0 °F - 50.0 °F 100% 30.57 in - West 8.1 mph - N/A   Overcast
10:25 AM 50.0 °F - 50.0 °F 100% 30.57 in 1.1 mi West 6.9 mph - N/A   Overcast
10:46 AM 50.0 °F - 50.0 °F 100% 30.57 in 1.1 mi West 8.1 mph - N/A   Overcast
10:55 AM 50.0 °F - 50.0 °F 100% 30.60 in 1.1 mi West 8.1 mph - N/A   Overcast
11:03 AM 50.0 °F - 50.0 °F 100% 30.60 in 0.9 mi West 6.9 mph - N/A   Overcast
11:13 AM 50.0 °F - 50.0 °F 100% 30.60 in 1.1 mi West 8.1 mph - N/A Rain Light Rain
11:25 AM 50.0 °F - 50.0 °F 100% 30.60 in 1.2 mi West 8.1 mph - N/A   Drizzle
11:32 AM 50.0 °F - 50.0 °F 100% 30.60 in 1.2 mi West 6.9 mph - N/A   Drizzle
11:41 AM 50.0 °F - 50.0 °F 100% 30.60 in 1.2 mi West 6.9 mph - N/A   Drizzle
11:55 AM 50.0 °F - 50.0 °F 100% 30.60 in 1.4 mi West 6.9 mph - N/A   Light Drizzle
11:59 AM 50.0 °F - 50.0 °F 100% 30.60 in 1.3 mi West 6.9 mph - N/A   Drizzle
12:08 PM 50.0 °F - 50.0 °F 100% 30.60 in 1.2 mi West 6.9 mph - N/A   Drizzle
12:12 PM 50.0 °F - 50.0 °F 100% 30.60 in 1.2 mi West 8.1 mph - N/A   Drizzle
12:16 PM 50.0 °F - 50.0 °F 100% 30.60 in 1.2 mi West 8.1 mph - N/A   Drizzle
12:17 PM 50.0 °F - 50.0 °F 100% 30.60 in 1.2 mi West 8.1 mph - N/A   Drizzle
12:25 PM 50.0 °F - 50.0 °F 100% 30.60 in 1.2 mi West 9.2 mph - N/A   Drizzle
12:55 PM 50.0 °F - 50.0 °F 100% 30.60 in 1.3 mi West 6.9 mph - N/A   Drizzle
1:19 PM 48.2 °F - 48.2 °F 100% 30.57 in 1.2 mi WSW 6.9 mph - N/A   Drizzle
1:25 PM 48.2 °F - 48.2 °F 100% 30.57 in 1.4 mi WSW 6.9 mph - N/A   Light Drizzle
1:55 PM 48.2 °F - 48.2 °F 100% 30.57 in 1.5 mi West 8.1 mph - N/A   Overcast
2:25 PM 48.2 °F - 48.2 °F 100% 30.57 in 1.5 mi West 9.2 mph - N/A   Overcast
2:55 PM 48.2 °F - 48.2 °F 100% 30.57 in - West 9.2 mph - N/A   Overcast
3:25 PM 48.2 °F - 48.2 °F 100% 30.57 in 2.2 mi West 8.1 mph - N/A   Overcast
3:55 PM 48.2 °F - 48.2 °F 100% 30.57 in 1.5 mi West 8.1 mph - N/A   Overcast
4:25 PM 48.2 °F - 48.2 °F 100% 30.57 in 3.1 mi West 6.9 mph - N/A   Overcast
4:55 PM 48.2 °F - 48.2 °F 100% 30.57 in 1.7 mi West 6.9 mph - N/A   Overcast
5:13 PM 48.2 °F - 48.2 °F 100% 30.57 in 1.6 mi West 5.8 mph - N/A   Overcast
5:21 PM 48.2 °F - 48.2 °F 100% 30.57 in - West 5.8 mph - N/A   Overcast
5:25 PM 48.2 °F - 48.2 °F 100% 30.57 in 1.9 mi West 5.8 mph - N/A   Overcast
5:55 PM 48.2 °F - 48.2 °F 100% 30.57 in - West 5.8 mph - N/A   Overcast
6:25 PM 48.2 °F - 48.2 °F 100% 30.57 in 2.5 mi West 5.8 mph - N/A   Light Drizzle
6:55 PM 48.2 °F - 48.2 °F 100% 30.57 in - West 5.8 mph - N/A   Light Drizzle
7:25 PM 48.2 °F - 48.2 °F 100% 30.57 in 1.9 mi West 5.8 mph - N/A   Drizzle
7:55 PM 48.2 °F - 48.2 °F 100% 30.57 in 1.9 mi West 6.9 mph - N/A   Drizzle
8:25 PM 48.2 °F - 48.2 °F 100% 30.57 in 1.9 mi West 5.8 mph - N/A   Light Drizzle
8:55 PM 48.2 °F - 48.2 °F 100% 30.57 in 1.6 mi West 6.9 mph - N/A   Drizzle
9:25 PM 46.4 °F 40.7 °F 46.4 °F 100% 30.57 in - West 12.7 mph - N/A   Light Drizzle
9:55 PM 46.4 °F 41.1 °F 46.4 °F 100% 30.57 in 2.5 mi West 11.5 mph - N/A   Overcast
10:25 PM 46.4 °F 41.9 °F 46.4 °F 100% 30.57 in - West 9.2 mph - N/A   Overcast
10:55 PM 46.4 °F 41.9 °F 46.4 °F 100% 30.57 in 3.1 mi West 9.2 mph - N/A   Mostly Cloudy
11:09 PM 46.4 °F 42.4 °F 46.4 °F 100% 30.57 in 3.7 mi West 8.1 mph - N/A   Mostly Cloudy
11:19 PM 46.4 °F 42.4 °F 46.4 °F 100% 30.57 in 3.7 mi West 8.1 mph - N/A   Mostly Cloudy
11:25 PM 46.4 °F 42.4 °F 46.4 °F 100% 30.54 in 5.6 mi West 8.1 mph - N/A   Overcast
11:27 PM 46.4 °F 41.5 °F 46.4 °F 100% 30.54 in 5.6 mi West 10.4 mph - N/A   Overcast
11:40 PM 46.4 °F 40.7 °F 46.4 °F 100% 30.54 in 6.2 mi West 12.7 mph - N/A   Overcast
11:55 PM 46.4 °F 41.1 °F 46.4 °F 100% 30.54 in 6.2 mi WNW 11.5 mph - N/A   Overcast